This is the latest recevied weather packets stored in our database for station/object KD4EG. If no packets are shown the sender has not sent any weather packets the latest 10 day(s).
| Time | Temp. | Humidity | Pressure | Rain* | Wind** | Luminosity | Snow |
|---|---|---|---|---|---|---|---|
| 1787949590 | 31.67° C | 48% | 1018.9 hPa | 0 mm | - | 490 W/m² | - |
| 1787949285 | 31.67° C | 47% | 1019 hPa | 0 mm | - | 528 W/m² | - |
| 1787948979 | 32.78° C | 46% | 1019.2 hPa | 0 mm | - | 542 W/m² | - |
| 1787948676 | 32.78° C | 49% | 1019 hPa | 0 mm | - | 531 W/m² | - |
| 1787948371 | 32.22° C | 48% | 1018.6 hPa | 0 mm | - | 530 W/m² | - |
| 1787948070 | 32.22° C | 48% | 1018.8 hPa | 0 mm | - | 537 W/m² | - |
| 1787947770 | 32.22° C | 47% | 1018.9 hPa | 0 mm | - | 548 W/m² | - |
| 1787947464 | 31.67° C | 48% | 1019 hPa | 0 mm | - | 535 W/m² | - |
| 1787947163 | 31.67° C | 48% | 1019.2 hPa | 0 mm | - | 547 W/m² | - |
| 1787946863 | 31.67° C | 49% | 1019.2 hPa | 0 mm | - | 557 W/m² | - |
| 1787946561 | 31.67° C | 50% | 1019.2 hPa | 0 mm | - | 616 W/m² | - |
| 1787946256 | 31.67° C | 53% | 1019.3 hPa | 0 mm | - | 359 W/m² | - |
| 1787945956 | 32.22° C | 53% | 1019.5 hPa | 0 mm | - | 618 W/m² | - |
| 1787945651 | 31.67° C | 53% | 1019.3 hPa | 0 mm | - | 621 W/m² | - |
| 1787945351 | 31.11° C | 54% | 1019.4 hPa | 0 mm | - | 622 W/m² | - |
| 1787945046 | 30.56° C | 55% | 1019.6 hPa | 0 mm | - | 489 W/m² | - |
| 1787944743 | 31.11° C | 54% | 1019.5 hPa | 0 mm | - | 378 W/m² | - |
| 1787944440 | 30.56° C | 55% | 1019.6 hPa | 0 mm | - | 611 W/m² | - |
| 1787944135 | 30.56° C | 55% | 1019.7 hPa | 0 mm | - | 687 W/m² | - |
| 1787943830 | 31.67° C | 54% | 1020.1 hPa | 0 mm | - | 625 W/m² | - |
| 1787943525 | 31.11° C | 59% | 1020 hPa | 0 mm | - | 396 W/m² | - |
| 1787943220 | 30.56° C | 56% | 1020.1 hPa | 0 mm | - | 288 W/m² | - |
| 1787942919 | 31.11° C | 56% | 1020 hPa | 0 mm | - | 440 W/m² | - |
| 1787942616 | 31.11° C | 54% | 1019.8 hPa | 0 mm | - | 272 W/m² | - |
| 1787942315 | 31.11° C | 55% | 1020 hPa | 0 mm | - | 364 W/m² | - |
* Rain latest hour (hover to see other rain measurements)
** Current wind speed in m/s (hover to see current wind gust speed)